Air Quality Table

TIMESTAMP NO2 SO2 O3 PM10 PM2.5 TEMP HUM AIRPRES WS WD NO
2022-06-28 09:00 17.12 µg/m3 0.19 µg/m3 30.87 µg/m3 100.31 µg/m3 22.61 µg/m3 28.82 °C 45.81 % 1,007.18 mbar 1.57 m/s 281.19 Deg 5.18 µg/m3
2022-06-28 01:00 21.24 µg/m3 0.11 µg/m3 28.4 µg/m3 78.63 µg/m3 20.87 µg/m3 27.77 °C 70.15 % 1,008.02 mbar 2.96 m/s 188.82 Deg 2.43 µg/m3
2022-06-27 17:00 4.15 µg/m3 0.07 µg/m3 48 µg/m3 60.09 µg/m3 16.42 µg/m3 29.36 °C 67.48 % 1,009.29 mbar 4.19 m/s 158.16 Deg 2.1 µg/m3
2022-06-27 09:00 14.54 µg/m3 0.09 µg/m3 34.85 µg/m3 70.2 µg/m3 18.74 µg/m3 26.14 °C 94.58 % 1,008.09 mbar 2.21 m/s 169.41 Deg 2.86 µg/m3
2022-06-27 01:00 10.72 µg/m3 0.06 µg/m3 40.86 µg/m3 60.29 µg/m3 18.99 µg/m3 26.78 °C 94.73 % 1,007.72 mbar 3.22 m/s 152.12 Deg 1.18 µg/m3
2022-06-26 17:00 10.52 µg/m3 0.1 µg/m3 66.98 µg/m3 58.96 µg/m3 14.97 µg/m3 30.09 °C 64.82 % 1,007.52 mbar 3.7 m/s 153.42 Deg 3.08 µg/m3
2022-06-26 09:00 23.29 µg/m3 0.14 µg/m3 50.55 µg/m3 54.69 µg/m3 14.73 µg/m3 26.7 °C 74.41 % 1,006.78 mbar 1.93 m/s 182.37 Deg 3.12 µg/m3
2022-06-26 01:00 25.63 µg/m3 0.13 µg/m3 64.95 µg/m3 51.8 µg/m3 10.02 µg/m3 28.78 °C 39.29 % 1,006.70 mbar 1.49 m/s 207.22 Deg 2.46 µg/m3
2022-06-25 17:00 16.05 µg/m3 0.14 µg/m3 81.46 µg/m3 34.73 µg/m3 9.33 µg/m3 31.23 °C 37.94 % 1,007.35 mbar 3.11 m/s 180.94 Deg 3.67 µg/m3
2022-06-25 09:00 34.68 µg/m3 0.3 µg/m3 32.95 µg/m3 26.33 µg/m3 7.32 µg/m3 28.62 °C 38.59 % 1,006.69 mbar 1.22 m/s 255.43 Deg 9.68 µg/m3
2022-06-25 01:00 30.25 µg/m3 0.18 µg/m3 47.7 µg/m3 43.3 µg/m3 13.15 µg/m3 28.71 °C 52.78 % 1,006.32 mbar 1.4 m/s 231.58 Deg 4.38 µg/m3
2022-06-24 17:00 18.35 µg/m3 0.22 µg/m3 85.69 µg/m3 48.77 µg/m3 12.23 µg/m3 33.28 °C 37.35 % 1,006.57 mbar 2.31 m/s 184.5 Deg 3.66 µg/m3
2022-06-24 09:00 44.71 µg/m3 0.32 µg/m3 58.86 µg/m3 38.66 µg/m3 7.33 µg/m3 29.25 °C 24.12 % 1,006.35 mbar 2.11 m/s 291.48 Deg 10.36 µg/m3
2022-06-24 01:00 21.47 µg/m3 0.15 µg/m3 64.47 µg/m3 38.4 µg/m3 13.06 µg/m3 28.22 °C 49.23 % 1,007.41 mbar 1.51 m/s 238.84 Deg 1.12 µg/m3
2022-06-23 17:00 16.28 µg/m3 0.08 µg/m3 95.15 µg/m3 36.57 µg/m3 9.42 µg/m3 32.84 °C 31.12 % 1,007.48 mbar 2.77 m/s 311.82 Deg 3.1 µg/m3
2022-06-23 09:00 32.53 µg/m3 0.07 µg/m3 62.61 µg/m3 32.76 µg/m3 12.7 µg/m3 26.68 °C 44.8 % 1,007.03 mbar 1.59 m/s 292.6 Deg 5.6 µg/m3
2022-06-23 01:00 18.82 µg/m3 -0.02 µg/m3 79.53 µg/m3 25.68 µg/m3 8.61 µg/m3 27.71 °C 38.88 % 1,006.97 mbar 1.59 m/s 302.37 Deg 1.03 µg/m3
2022-06-22 17:00 11.06 µg/m3 0.02 µg/m3 95.45 µg/m3 30.12 µg/m3 7.29 µg/m3 30.45 °C 42.83 % 1,007.32 mbar 2.63 m/s 279.65 Deg 2.26 µg/m3
2022-06-22 09:00 27.76 µg/m3 0.01 µg/m3 53.49 µg/m3 21.13 µg/m3 9.5 µg/m3 24.87 °C 74.35 % 1,006.91 mbar 1.13 m/s 291.89 Deg 5.9 µg/m3
2022-06-22 01:00 8.85 µg/m3 -0.08 µg/m3 72.69 µg/m3 26.54 µg/m3 10.02 µg/m3 25.54 °C 72.4 % 1,008.06 mbar 1.59 m/s 276.48 Deg 0.87 µg/m3

It is to be noted that the data is provisional and subject to quality assurance procedures. For validated data kindly refer your request to contact.air@era.org.mt